Time,TemperatureF,DewpointF,PressureIn,WindDirection,WindDirectionDegrees,WindSpeedMPH,WindSpeedGustMPH,Humidity,HourlyPrecipIn,Conditions,Clouds,dailyrainin,SoftwareType,DateUTC
2013-06-17 00:02:00,60.0,37.0,-100.00,West,266,6.0,10.0,43,-99.99,,,-99.99,,2013-06-17 07:02:00,
2013-06-17 00:11:00,60.0,38.0,-100.00,West,262,6.0,10.0,44,-99.99,,,-99.99,,2013-06-17 07:11:00,
2013-06-17 00:22:00,60.0,38.0,-100.00,West,262,6.0,10.0,44,-99.99,,,-99.99,,2013-06-17 07:22:00,
2013-06-17 00:33:00,60.0,39.0,-100.00,West,260,5.0,8.0,45,-99.99,,,-99.99,,2013-06-17 07:33:00,
2013-06-17 00:42:00,60.0,38.0,-100.00,West,259,5.0,10.0,44,-99.99,,,-99.99,,2013-06-17 07:42:00,
2013-06-17 00:52:00,60.0,38.0,-100.00,West,259,5.0,10.0,44,-99.99,,,-99.99,,2013-06-17 07:52:00,
2013-06-17 01:01:00,61.0,40.0,-100.00,WSW,258,7.0,10.0,46,-99.99,,,-99.99,,2013-06-17 08:01:00,
2013-06-17 01:11:00,61.0,40.0,-100.00,WSW,258,7.0,10.0,46,-99.99,,,-99.99,,2013-06-17 08:11:00,
2013-06-17 01:22:00,61.0,41.0,-100.00,West,272,6.0,10.0,47,-99.99,,,-99.99,,2013-06-17 08:22:00,
2013-06-17 01:33:00,60.0,41.0,-100.00,West,264,5.0,8.0,50,-99.99,,,-99.99,,2013-06-17 08:33:00,
2013-06-17 01:43:00,63.0,42.0,-100.00,SW,233,6.0,11.0,46,-99.99,,,-99.99,,2013-06-17 08:43:00,
2013-06-17 01:52:00,63.0,42.0,-100.00,SW,233,6.0,11.0,46,-99.99,,,-99.99,,2013-06-17 08:52:00,
2013-06-17 02:02:00,63.0,42.0,-100.00,WSW,253,6.0,9.0,47,-99.99,,,-99.99,,2013-06-17 09:02:00,
2013-06-17 02:11:00,63.0,42.0,-100.00,SW,232,6.0,10.0,47,-99.99,,,-99.99,,2013-06-17 09:11:00,
2013-06-17 02:22:00,63.0,42.0,-100.00,SW,235,6.0,10.0,47,-99.99,,,-99.99,,2013-06-17 09:22:00,
2013-06-17 02:33:00,63.0,42.0,-100.00,SW,235,5.0,9.0,47,-99.99,,,-99.99,,2013-06-17 09:33:00,
2013-06-17 02:43:00,62.0,41.0,-100.00,WSW,240,5.0,10.0,46,-99.99,,,-99.99,,2013-06-17 09:43:00,
2013-06-17 02:52:00,62.0,41.0,-100.00,WSW,240,5.0,10.0,46,-99.99,,,-99.99,,2013-06-17 09:52:00,
2013-06-17 03:02:00,63.0,41.0,-100.00,WSW,244,6.0,11.0,44,-99.99,,,-99.99,,2013-06-17 10:02:00,
2013-06-17 03:12:00,62.0,40.0,-100.00,WSW,245,5.0,9.0,45,-99.99,,,-99.99,,2013-06-17 10:12:00,
2013-06-17 03:22:00,62.0,41.0,-100.00,WSW,241,6.0,10.0,46,-99.99,,,-99.99,,2013-06-17 10:22:00,
2013-06-17 03:33:00,62.0,41.0,-100.00,WSW,237,6.0,11.0,46,-99.99,,,-99.99,,2013-06-17 10:33:00,
2013-06-17 03:42:00,62.0,41.0,-100.00,WSW,238,6.0,10.0,46,-99.99,,,-99.99,,2013-06-17 10:42:00,
2013-06-17 03:53:00,62.0,41.0,-100.00,WSW,238,6.0,10.0,46,-99.99,,,-99.99,,2013-06-17 10:53:00,
2013-06-17 04:02:00,63.0,41.0,-100.00,SW,233,7.0,11.0,44,-99.99,,,-99.99,,2013-06-17 11:02:00,
2013-06-17 04:11:00,63.0,41.0,-100.00,SW,233,7.0,11.0,44,-99.99,,,-99.99,,2013-06-17 11:11:00,
2013-06-17 04:23:00,63.0,40.0,-100.00,SW,236,7.0,11.0,43,-99.99,,,-99.99,,2013-06-17 11:23:00,
2013-06-17 04:33:00,63.0,38.0,-100.00,WSW,249,5.0,9.0,40,-99.99,,,-99.99,,2013-06-17 11:33:00,
2013-06-17 04:43:00,62.0,37.0,-100.00,WSW,241,5.0,9.0,39,-99.99,,,-99.99,,2013-06-17 11:43:00,
2013-06-17 04:53:00,62.0,37.0,-100.00,WSW,241,5.0,9.0,39,-99.99,,,-99.99,,2013-06-17 11:53:00,
2013-06-17 05:02:00,63.0,35.0,-100.00,WSW,249,5.0,8.0,35,-99.99,,,-99.99,,2013-06-17 12:02:00,
2013-06-17 05:11:00,63.0,35.0,-100.00,WSW,249,5.0,8.0,35,-99.99,,,-99.99,,2013-06-17 12:11:00,
2013-06-17 05:22:00,62.0,34.0,-100.00,WSW,250,4.0,7.0,35,-99.99,,,-99.99,,2013-06-17 12:22:00,
2013-06-17 05:33:00,62.0,35.0,-100.00,WSW,248,5.0,9.0,36,-99.99,,,-99.99,,2013-06-17 12:33:00,
2013-06-17 05:43:00,62.0,35.0,-100.00,WSW,249,4.0,7.0,36,-99.99,,,-99.99,,2013-06-17 12:43:00,
2013-06-17 05:53:00,62.0,35.0,-100.00,WSW,249,4.0,7.0,36,-99.99,,,-99.99,,2013-06-17 12:53:00,
2013-06-17 06:01:00,62.0,35.0,-100.00,WSW,258,5.0,7.0,36,-99.99,,,-99.99,,2013-06-17 13:01:00,
2013-06-17 06:11:00,61.0,35.0,-100.00,WSW,252,4.0,7.0,37,-99.99,,,-99.99,,2013-06-17 13:11:00,
2013-06-17 06:22:00,61.0,34.0,-100.00,WSW,244,4.0,7.0,36,-99.99,,,-99.99,,2013-06-17 13:22:00,
2013-06-17 06:32:00,64.0,33.0,-100.00,WSW,241,4.0,7.0,31,-99.99,,,-99.99,,2013-06-17 13:32:00,
2013-06-17 06:43:00,64.0,33.0,-100.00,WSW,246,4.0,9.0,31,-99.99,,,-99.99,,2013-06-17 13:43:00,
2013-06-17 06:52:00,64.0,33.0,-100.00,WSW,246,4.0,9.0,31,-99.99,,,-99.99,,2013-06-17 13:52:00,
2013-06-17 07:02:00,66.0,32.0,-100.00,WSW,249,5.0,8.0,28,-99.99,,,-99.99,,2013-06-17 14:02:00,
2013-06-17 07:11:00,66.0,32.0,-100.00,WSW,250,5.0,8.0,28,-99.99,,,-99.99,,2013-06-17 14:11:00,
2013-06-17 07:22:00,66.0,32.0,-100.00,WSW,250,5.0,8.0,28,-99.99,,,-99.99,,2013-06-17 14:22:00,
2013-06-17 07:34:00,68.0,31.0,-100.00,WSW,243,5.0,8.0,25,-99.99,,,-99.99,,2013-06-17 14:34:00,
2013-06-17 07:43:00,68.0,30.0,-100.00,WSW,248,5.0,9.0,24,-99.99,,,-99.99,,2013-06-17 14:43:00,
2013-06-17 07:53:00,68.0,30.0,-100.00,WSW,248,5.0,9.0,24,-99.99,,,-99.99,,2013-06-17 14:53:00,
2013-06-17 08:01:00,69.0,30.0,-100.00,WSW,249,5.0,9.0,23,-99.99,,,-99.99,,2013-06-17 15:01:00,
2013-06-17 08:12:00,69.0,30.0,-100.00,WSW,249,5.0,9.0,23,-99.99,,,-99.99,,2013-06-17 15:12:00,
2013-06-17 08:22:00,69.0,30.0,-100.00,WSW,255,6.0,11.0,23,-99.99,,,-99.99,,2013-06-17 15:22:00,
2013-06-17 08:33:00,69.0,31.0,-100.00,WSW,246,5.0,10.0,24,-99.99,,,-99.99,,2013-06-17 15:33:00,
2013-06-17 08:43:00,70.0,32.0,-100.00,WSW,255,5.0,10.0,24,-99.99,,,-99.99,,2013-06-17 15:43:00,
2013-06-17 08:52:00,70.0,32.0,-100.00,WSW,255,5.0,10.0,24,-99.99,,,-99.99,,2013-06-17 15:52:00,
2013-06-17 09:02:00,72.0,31.0,-100.00,West,263,5.0,11.0,22,-99.99,,,-99.99,,2013-06-17 16:02:00,
2013-06-17 09:11:00,72.0,31.0,-100.00,West,263,6.0,10.0,22,-99.99,,,-99.99,,2013-06-17 16:11:00,
2013-06-17 09:22:00,72.0,31.0,-100.00,West,263,6.0,10.0,22,-99.99,,,-99.99,,2013-06-17 16:22:00,
2013-06-17 09:33:00,72.0,32.0,-100.00,West,273,7.0,11.0,23,-99.99,,,-99.99,,2013-06-17 16:33:00,
2013-06-17 09:43:00,73.0,31.0,-100.00,West,276,7.0,11.0,21,-99.99,,,-99.99,,2013-06-17 16:43:00,
2013-06-17 09:53:00,73.0,31.0,-100.00,West,280,6.0,9.0,21,-99.99,,,-99.99,,2013-06-17 16:53:00,
2013-06-17 10:02:00,73.0,30.0,-100.00,West,269,7.0,10.0,20,-99.99,,,-99.99,,2013-06-17 17:02:00,
2013-06-17 10:11:00,73.0,30.0,-100.00,West,269,7.0,10.0,20,-99.99,,,-99.99,,2013-06-17 17:11:00,
2013-06-17 10:22:00,74.0,28.0,-100.00,West,275,7.0,13.0,18,-99.99,,,-99.99,,2013-06-17 17:22:00,
2013-06-17 10:33:00,74.0,28.0,-100.00,West,275,7.0,13.0,18,-99.99,,,-99.99,,2013-06-17 17:33:00,
2013-06-17 10:43:00,75.0,29.0,-100.00,WNW,284,7.0,12.0,18,-99.99,,,-99.99,,2013-06-17 17:43:00,
2013-06-17 10:52:00,75.0,29.0,-100.00,WNW,284,7.0,12.0,18,-99.99,,,-99.99,,2013-06-17 17:52:00,
2013-06-17 11:01:00,75.0,29.0,-100.00,West,270,7.0,13.0,18,-99.99,,,-99.99,,2013-06-17 18:01:00,
2013-06-17 11:11:00,75.0,29.0,-100.00,West,270,7.0,13.0,18,-99.99,,,-99.99,,2013-06-17 18:11:00,
2013-06-17 11:23:00,75.0,29.0,-100.00,West,273,7.0,12.0,18,-99.99,,,-99.99,,2013-06-17 18:23:00,
2013-06-17 11:33:00,76.0,31.0,-100.00,WNW,286,7.0,11.0,19,-99.99,,,-99.99,,2013-06-17 18:33:00,
2013-06-17 11:42:00,77.0,32.0,-100.00,West,275,7.0,13.0,19,-99.99,,,-99.99,,2013-06-17 18:42:00,
2013-06-17 11:53:00,77.0,30.0,-100.00,West,280,8.0,14.0,18,-99.99,,,-99.99,,2013-06-17 18:53:00,
2013-06-17 12:02:00,76.0,31.0,-100.00,West,275,9.0,14.0,19,-99.99,,,-99.99,,2013-06-17 19:02:00,
2013-06-17 12:11:00,76.0,31.0,-100.00,West,275,9.0,14.0,19,-99.99,,,-99.99,,2013-06-17 19:11:00,
2013-06-17 12:22:00,77.0,29.0,-100.00,West,279,8.0,13.0,17,-99.99,,,-99.99,,2013-06-17 19:22:00,
2013-06-17 12:33:00,77.0,29.0,-100.00,West,281,7.0,14.0,17,-99.99,,,-99.99,,2013-06-17 19:33:00,
2013-06-17 12:43:00,77.0,29.0,-100.00,WNW,292,8.0,12.0,17,-99.99,,,-99.99,,2013-06-17 19:43:00,
2013-06-17 12:53:00,77.0,27.0,-100.00,WNW,289,7.0,12.0,16,-99.99,,,-99.99,,2013-06-17 19:53:00,
2013-06-17 13:01:00,78.0,30.0,-100.00,West,279,9.0,14.0,17,-99.99,,,-99.99,,2013-06-17 20:01:00,
2013-06-17 13:11:00,78.0,30.0,-100.00,West,279,9.0,14.0,17,-99.99,,,-99.99,,2013-06-17 20:11:00,
2013-06-17 13:22:00,78.0,31.0,-100.00,West,273,9.0,15.0,18,-99.99,,,-99.99,,2013-06-17 20:22:00,
2013-06-17 13:33:00,77.0,34.0,-100.00,WNW,283,10.0,17.0,21,-99.99,,,-99.99,,2013-06-17 20:33:00,
2013-06-17 13:43:00,77.0,36.0,-100.00,West,279,10.0,21.0,23,-99.99,,,-99.99,,2013-06-17 20:43:00,
2013-06-17 13:52:00,77.0,36.0,-100.00,West,279,10.0,21.0,23,-99.99,,,-99.99,,2013-06-17 20:52:00,
2013-06-17 14:01:00,78.0,37.0,-100.00,West,274,9.0,16.0,23,-99.99,,,-99.99,,2013-06-17 21:01:00,
2013-06-17 14:12:00,78.0,37.0,-100.00,West,274,9.0,16.0,23,-99.99,,,-99.99,,2013-06-17 21:12:00,
2013-06-17 14:22:00,78.0,38.0,-100.00,West,271,10.0,17.0,24,-99.99,,,-99.99,,2013-06-17 21:22:00,
2013-06-17 14:33:00,77.0,36.0,-100.00,West,279,11.0,16.0,23,-99.99,,,-99.99,,2013-06-17 21:33:00,
2013-06-17 14:43:00,78.0,36.0,-100.00,West,274,9.0,14.0,22,-99.99,,,-99.99,,2013-06-17 21:43:00,
2013-06-17 14:52:00,78.0,36.0,-100.00,West,274,9.0,14.0,22,-99.99,,,-99.99,,2013-06-17 21:52:00,
2013-06-17 15:01:00,78.0,37.0,-100.00,West,278,9.0,15.0,23,-99.99,,,-99.99,,2013-06-17 22:01:00,
2013-06-17 15:11:00,78.0,38.0,-100.00,West,271,9.0,17.0,24,-99.99,,,-99.99,,2013-06-17 22:11:00,
2013-06-17 15:22:00,78.0,39.0,-100.00,West,274,9.0,16.0,25,-99.99,,,-99.99,,2013-06-17 22:22:00,
2013-06-17 15:33:00,77.0,40.0,-100.00,West,271,10.0,17.0,27,-99.99,,,-99.99,,2013-06-17 22:33:00,
2013-06-17 15:43:00,78.0,42.0,-100.00,West,276,10.0,18.0,28,-99.99,,,-99.99,,2013-06-17 22:43:00,
2013-06-17 15:53:00,77.0,42.0,-100.00,West,272,10.0,17.0,29,-99.99,,,-99.99,,2013-06-17 22:53:00,
2013-06-17 16:02:00,77.0,41.0,-100.00,West,272,10.0,15.0,28,-99.99,,,-99.99,,2013-06-17 23:02:00,
2013-06-17 16:11:00,77.0,41.0,-100.00,West,272,10.0,15.0,28,-99.99,,,-99.99,,2013-06-17 23:11:00,
2013-06-17 16:22:00,77.0,41.0,-100.00,West,270,9.0,13.0,28,-99.99,,,-99.99,,2013-06-17 23:22:00,
2013-06-17 16:32:00,77.0,41.0,-100.00,West,276,9.0,19.0,28,-99.99,,,-99.99,,2013-06-17 23:32:00,
2013-06-17 16:42:00,77.0,41.0,-100.00,West,277,10.0,16.0,28,-99.99,,,-99.99,,2013-06-17 23:42:00,
2013-06-17 16:52:00,76.0,40.0,-100.00,West,280,10.0,15.0,27,-99.99,,,-99.99,,2013-06-17 23:52:00,
2013-06-17 17:01:00,76.0,41.0,-100.00,West,272,10.0,16.0,28,-99.99,,,-99.99,,2013-06-18 00:01:00,
2013-06-17 17:12:00,76.0,41.0,-100.00,West,272,10.0,16.0,28,-99.99,,,-99.99,,2013-06-18 00:12:00,
2013-06-17 17:22:00,76.0,40.0,-100.00,West,274,10.0,16.0,27,-99.99,,,-99.99,,2013-06-18 00:22:00,
2013-06-17 17:32:00,76.0,40.0,-100.00,West,276,10.0,15.0,27,-99.99,,,-99.99,,2013-06-18 00:32:00,
2013-06-17 17:43:00,76.0,40.0,-100.00,West,265,9.0,15.0,27,-99.99,,,-99.99,,2013-06-18 00:43:00,
2013-06-17 17:52:00,75.0,40.0,-100.00,West,269,9.0,15.0,28,-99.99,,,-99.99,,2013-06-18 00:52:00,
2013-06-17 18:01:00,75.0,40.0,-100.00,West,276,9.0,15.0,28,-99.99,,,-99.99,,2013-06-18 01:01:00,
2013-06-17 18:11:00,75.0,40.0,-100.00,West,268,9.0,14.0,28,-99.99,,,-99.99,,2013-06-18 01:11:00,
2013-06-17 18:23:00,74.0,41.0,-100.00,West,272,9.0,13.0,30,-99.99,,,-99.99,,2013-06-18 01:23:00,
2013-06-17 18:33:00,74.0,41.0,-100.00,West,275,9.0,14.0,30,-99.99,,,-99.99,,2013-06-18 01:33:00,
2013-06-17 18:44:00,73.0,40.0,-100.00,West,272,8.0,13.0,30,-99.99,,,-99.99,,2013-06-18 01:44:00,
2013-06-17 18:53:00,73.0,40.0,-100.00,West,272,8.0,13.0,30,-99.99,,,-99.99,,2013-06-18 01:53:00,
2013-06-17 19:02:00,73.0,41.0,-100.00,West,271,8.0,13.0,31,-99.99,,,-99.99,,2013-06-18 02:02:00,
2013-06-17 19:11:00,73.0,41.0,-100.00,West,271,8.0,13.0,31,-99.99,,,-99.99,,2013-06-18 02:11:00,
2013-06-17 19:22:00,72.0,41.0,-100.00,West,265,7.0,14.0,33,-99.99,,,-99.99,,2013-06-18 02:22:00,
2013-06-17 19:34:00,71.0,42.0,-100.00,West,261,7.0,12.0,35,-99.99,,,-99.99,,2013-06-18 02:34:00,
2013-06-17 19:43:00,70.0,43.0,-100.00,West,259,7.0,12.0,37,-99.99,,,-99.99,,2013-06-18 02:43:00,
2013-06-17 19:53:00,69.0,43.0,-100.00,WSW,258,6.0,10.0,39,-99.99,,,-99.99,,2013-06-18 02:53:00,
2013-06-17 20:02:00,68.0,43.0,-100.00,West,260,6.0,11.0,41,-99.99,,,-99.99,,2013-06-18 03:02:00,
2013-06-17 20:11:00,68.0,43.0,-100.00,West,260,6.0,11.0,41,-99.99,,,-99.99,,2013-06-18 03:11:00,
2013-06-17 20:23:00,66.0,44.0,-100.00,West,263,5.0,10.0,45,-99.99,,,-99.99,,2013-06-18 03:23:00,
2013-06-17 20:33:00,65.0,44.0,-100.00,West,268,5.0,9.0,47,-99.99,,,-99.99,,2013-06-18 03:33:00,
2013-06-17 20:42:00,64.0,44.0,-100.00,West,261,5.0,8.0,49,-99.99,,,-99.99,,2013-06-18 03:42:00,
2013-06-17 20:53:00,63.0,45.0,-100.00,WSW,258,5.0,8.0,51,-99.99,,,-99.99,,2013-06-18 03:53:00,
2013-06-17 21:01:00,63.0,45.0,-100.00,WSW,253,5.0,7.0,52,-99.99,,,-99.99,,2013-06-18 04:01:00,
2013-06-17 21:11:00,62.0,45.0,-100.00,West,259,5.0,8.0,53,-99.99,,,-99.99,,2013-06-18 04:11:00,
2013-06-17 21:22:00,62.0,45.0,-100.00,West,259,5.0,8.0,53,-99.99,,,-99.99,,2013-06-18 04:22:00,
2013-06-17 21:34:00,61.0,45.0,-100.00,West,262,4.0,6.0,55,-99.99,,,-99.99,,2013-06-18 04:34:00,
2013-06-17 21:42:00,62.0,45.0,-100.00,West,264,5.0,7.0,54,-99.99,,,-99.99,,2013-06-18 04:42:00,
2013-06-17 21:53:00,62.0,45.0,-100.00,West,264,5.0,7.0,54,-99.99,,,-99.99,,2013-06-18 04:53:00,
2013-06-17 22:02:00,61.0,45.0,-100.00,West,272,6.0,7.0,55,-99.99,,,-99.99,,2013-06-18 05:02:00,
2013-06-17 22:12:00,61.0,45.0,-100.00,West,272,6.0,7.0,55,-99.99,,,-99.99,,2013-06-18 05:12:00,
2013-06-17 22:22:00,61.0,45.0,-100.00,West,265,6.0,8.0,55,-99.99,,,-99.99,,2013-06-18 05:22:00,
2013-06-17 22:33:00,61.0,44.0,-100.00,West,266,5.0,7.0,54,-99.99,,,-99.99,,2013-06-18 05:33:00,
2013-06-17 22:43:00,61.0,43.0,-100.00,West,267,6.0,7.0,52,-99.99,,,-99.99,,2013-06-18 05:43:00,
2013-06-17 22:53:00,61.0,43.0,-100.00,West,267,6.0,7.0,52,-99.99,,,-99.99,,2013-06-18 05:53:00,
2013-06-17 23:02:00,62.0,41.0,-100.00,West,271,5.0,7.0,46,-99.99,,,-99.99,,2013-06-18 06:02:00,
2013-06-17 23:11:00,62.0,41.0,-100.00,West,271,5.0,7.0,46,-99.99,,,-99.99,,2013-06-18 06:11:00,
2013-06-17 23:23:00,61.0,41.0,-100.00,West,273,5.0,7.0,47,-99.99,,,-99.99,,2013-06-18 06:23:00,
2013-06-17 23:32:00,61.0,40.0,-100.00,West,272,5.0,7.0,46,-99.99,,,-99.99,,2013-06-18 06:32:00,
2013-06-17 23:43:00,61.0,41.0,-100.00,West,274,6.0,8.0,47,-99.99,,,-99.99,,2013-06-18 06:43:00,
2013-06-17 23:52:00,61.0,41.0,-100.00,West,274,6.0,8.0,47,-99.99,,,-99.99,,2013-06-18 06:52:00,